DELTA 1 DEB

Satellite information

Favourite Embed

Satellite Type and Status

DEBRISIN ORBIT

Key statistics

Satellite DELTA 1 DEB at a glance.

Uptime

18978

Days in orbit

Revolutions

≈ 13.5

Per day

Orbit

SSO

Sun Synchronous Orbit

Inclination

101.7

Latest

Satellite identification and parameters

Extended collection of information and parameters for DELTA 1 DEB.

Object identification

Identified? True

Debris? True

Object name: DELTA 1 DEB

International designator: 1973-086AJ

Object number (NORAD): 7042

Object ID (CCSDS): 7042

Country: UNITED STATES OF AMERICA (US)

Current information (Y/N): Y

RCS size: SMALL

Orbital parameters

Period: 106.832 minutes

Inclination: 101.7434 deg

SMA: 7458.11 km

Apoapsis: 1316.8 km

Periapsis: 843.15 km

RAAN: 137.7763 deg

Eccentricy: 0.031754

Argument of periapsis: 262.3243 deg

Mean anomaly: 94.1719 deg

Mean motion: 13.47905978 rev/day

Mean motion (dot): 0.00001609 rev/day2

B* drag term: 0.0019915 1/REarth

Two-line elements (TLE)

Creation date: Oct. 21, 2025, 11:56 p.m.

Reference frame: TEME

Reference center: EARTH

Epoch: Oct. 21, 2025, 6:31 p.m. UTC

TLE line 0: 0 DELTA 1 DEB

TLE line 1: 1 7042U 73086AJ 25294.77165779 .00001609 00000-0 19915-2 0 9991

TLE line 2: 2 7042 101.7434 137.7763 0317540 262.3243 94.1719 13.47905978530115

Live tracking on map

Real-time ground track for satellite DELTA 1 DEB.

In-orbit conjunctions

A list of the most updated potential collisions computed for object DELTA 1 DEB.

Target Orbit TCA Probability of collision Miss distance Type
CZ-6A DEB SSO 2025-02-11 23:42:48 0.0001324975 256.0 (m) DEBRIS
COSMOS 1417 DEB LEO 2024-11-11 20:26:56 0.0001283272 326.0 (m) DEBRIS

Associated space launch

Meteorological satellite using radiometric imaging

DELTA 1 DEB was lifted into orbit during the mission ‘Delta 0300 | NOAA 3’, on board a Delta 0300 space rocket.

The launch took place on Nov. 6, 1973, 5:02 p.m. from Space Launch Complex 2W.

For more information about the launch, click the button.

Launch to space Delta 0300 | NOAA 3
Delta 0300 | NOAA 3

Agency: N/A

Status: Launch Successful

Launch date: Nov. 6, 1973, 5:02 p.m. UTC

Rocket: Delta 0300

Launch pad: Space Launch Complex 2W

Location: Vandenberg SFB, CA, USA

...

Latest news about this satellite

There are no fresh news available about this satellite. Check back as we update our databases every day.


Newsletter sign-up

Weekly statistics, charts and insights to help you stay on top of the space industry.